Location: Azul
(36.7830°S, 59.8500°W)
Time: 09:47:26
(UTC-03:00)

JY1SAT - Visible Passes

Search period start: 22 October 2021 00:00
Search period end: 01 November 2021 00:00
Orbit: 569 x 589 km, 97.7° (Epoch: 22 October)

Date Brightness Start Highest point End Pass type
(mag) Time Alt. Az. Time Alt. Az. Time Alt. Az.
29 Oct ? 23:29:53 10° S 23:30:00 11° S 23:30:00 11° S visible
30 Oct ? 23:34:32 10° S 23:34:47 12° S 23:34:47 12° S visible
31 Oct ? 23:39:12 10° S 23:39:34 12° S 23:39:34 12° S visible
